North Platte, NE

9:49 AM CDT on May 26, 2017 (GMT -0500)
North Platte Regional-Bird

Weather History for KLBF - August, 2014

Change the Weather History Date:

Wednesday, August 20, 2014

  Actual Average Record
Temperature  
Mean Temperature 79 °F 72 °F  
Max Temperature 91 °F 86 °F 101 °F (1898)
Min Temperature 66 °F 58 °F 40 °F (1950)
Degree Days  
Heating Degree Days 0 0  
Month to date heating degree days 0 0  
Since 1 June heating degree days 56 56  
Since 1 July heating degree days 17 5  
Cooling Degree Days 14 7  
Month to date cooling degree days 193 168  
Year to date cooling degree days 608 627  
Since 1 June cooling degree days 559 599  
Growing Degree Days 28 (Base 50)    
Moisture  
Dew Point 64 °F    
Average Humidity 70    
Maximum Humidity 93    
Minimum Humidity 47    
Precipitation  
Precipitation T in 0.06 in 1.30 in (1920)
Month to date precipitation 2.52 1.68  
Year to date precipitation 15.70 15.61  
Snow  
Snow 0.00 in 0.00 in 0.00 in (2002)
Month to date snowfall 0.0 0.0  
Since 1 June snowfall T 0.0  
Since 1 July snowfall 0.0 0.0  
Snow Depth 0.00 in    
Sea Level Pressure  
Sea Level Pressure 29.69 in    
Wind  
Wind Speed 6 mph (SW)    
Max Wind Speed 17 mph    
Max Gust Speed 26 mph    
Visibility 10 miles    
Events Rain , Thunderstorm    
T = Trace of Precipitation, MM = Missing Value Source: NWS Daily Summary

Daily Weather History Graph

Daily Weather History Graph

Search for Another Location

Airport or City:

Trip Planner

Search our weather history database for the weather conditions in past years. The results will help you decide how hot, cold, wet, or windy it might be!

Date:

Astronomy

Aug. 20, 2014 Rise Set
Actual Time 6:57 AM CDT 8:34 PM CDT
Civil Twilight 6:28 AM CDT 9:03 PM CDT
Nautical Twilight 5:52 AM CDT 9:38 PM CDT
Astronomical Twilight 5:15 AM CDT 10:15 PM CDT
Moon 2:37 AM CDT (8/20) 5:21 PM CDT (8/20)
Length of Visible Light 14h 35m
Length of Day
13h 36m
Waning Crescent, 20% of the Moon is Illuminated
Aug 20
Waning Crescent
Aug 25
New
Sep 2
First Quarter
Sep 8
Full
Sep 15
Last Quarter

Hourly Weather History & Observations

Time (CDT) Temp. Heat Index Dew Point Humidity Pressure Visibility Wind Dir Wind Speed Gust Speed Precip Events Conditions
12:53 AM 69.1 °F - 64.0 °F 84% 29.72 in 10.0 mi NE 9.2 mph - 0.01 in Rain Light Rain
1:53 AM 70.0 °F - 62.1 °F 76% 29.68 in 10.0 mi North 8.1 mph - 0.00 in Rain Light Rain
2:53 AM 68.0 °F - 64.0 °F 87% 29.67 in 10.0 mi SE 9.2 mph - 0.00 in   Mostly Cloudy
3:53 AM 66.0 °F - 64.0 °F 93% 29.67 in 10.0 mi NNW 3.5 mph - N/A   Partly Cloudy
4:53 AM 71.1 °F - 62.1 °F 73% 29.64 in 10.0 mi South 10.4 mph - N/A   Clear
5:53 AM 72.0 °F - 61.0 °F 68% 29.65 in 10.0 mi Variable 3.5 mph - N/A   Clear
6:53 AM 73.4 °F - 62.6 °F 69% 29.75 in 10.0 mi SSW 6.9 mph - N/A   Clear
7:53 AM 73.0 °F - 63.0 °F 71% 29.69 in 10.0 mi Variable 3.5 mph - N/A   Clear
8:53 AM 73.0 °F - 64.0 °F 73% 29.69 in 10.0 mi South 11.5 mph - N/A   Partly Cloudy
9:53 AM 75.0 °F - 64.9 °F 71% 29.70 in 10.0 mi West 5.8 mph - N/A   Clear
10:53 AM 75.0 °F - 66.0 °F 73% 29.70 in 10.0 mi NW 6.9 mph - N/A   Clear
11:53 AM 75.9 °F - 66.0 °F 71% 29.71 in 10.0 mi WNW 5.8 mph - 0.00 in   Scattered Clouds
12:53 PM 77.0 °F - 66.9 °F 71% 29.71 in 10.0 mi Calm Calm - 0.00 in   Clear
1:53 PM 82.0 °F 84.1 °F 66.0 °F 58% 29.70 in 10.0 mi Calm Calm - N/A   Clear
2:53 PM 84.9 °F 86.6 °F 64.9 °F 51% 29.69 in 10.0 mi Calm Calm - N/A   Clear
3:53 PM 88.0 °F 90.3 °F 66.0 °F 48% 29.67 in 10.0 mi Variable 4.6 mph - N/A   Clear
4:53 PM 91.0 °F 95.2 °F 68.0 °F 47% 29.65 in 10.0 mi West 8.1 mph - N/A   Clear
5:53 PM 90.0 °F 93.6 °F 68.0 °F 48% 29.63 in 10.0 mi NNW 6.9 mph - N/A   Clear
6:53 PM 88.0 °F 90.7 °F 66.9 °F 49% 29.64 in 10.0 mi NNW 6.9 mph - N/A   Clear
7:53 PM 84.0 °F 86.5 °F 66.9 °F 56% 29.65 in 10.0 mi Calm Calm - N/A   Clear
8:53 PM 77.0 °F - 57.9 °F 52% 29.71 in 10.0 mi SE 15.0 mph 25.3 mph N/A   Clear
9:53 PM 70.0 °F - 60.1 °F 71% 29.70 in 10.0 mi ENE 3.5 mph - N/A   Clear
10:42 PM 70.0 °F - 61.0 °F 73% 29.82 in 10.0 mi SSE 3.5 mph - N/A Thunderstorm Partly Cloudy
10:53 PM 73.0 °F - 61.0 °F 66% 29.74 in 10.0 mi South 6.9 mph - N/A Thunderstorm Scattered Clouds
11:53 PM 71.1 °F - 64.9 °F 81% 29.71 in 10.0 mi ESE 9.2 mph - 0.00 in   Clear